Wind_Speed
11 10 10 10 10 10 11 11 13 14 15 16 17 17 17 17 17 17 17 17 17 17 16 16 16 17 18 18 19 19 20 20 21 22 23 23 24 24 25 25 25 26 26
12 12 11 11 12 12 13 14 15 17 18 20 20 21 21 20 20 21 20 20 20 20 20 20 20 20 21 21 22 22 22 23 24 24 25 26 27 28 28 28 28 29 29
14 13 13 13 14 14 16 17 18 20 22 23 24 24 24 24 24 24 23 23 23 22 22 23 23 23 23 24 24 25 25 26 26 27 27 28 29 30 31 32 32 33 33
15 15 15 15 16 17 18 20 21 22 23 24 26 26 26 26 25 24 25 25 25 25 24 25 25 26 27 27 27 28 28 29 29 30 31 31 33 34 35 36 36 37 37
17 17 17 17 18 19 21 21 22 23 24 25 25 26 26 26 25 25 25 25 26 26 27 27 28 28 29 30 30 31 31 32 33 34 35 36 37 38 39 40 41 41 41
18 18 19 20 21 22 22 23 24 25 25 26 26 26 25 26 26 26 26 26 26 27 29 30 30 30 32 33 34 34 35 36 37 38 39 40 41 42 43 44 45 46 47
20 20 21 22 22 23 24 24 25 26 26 26 26 26 26 26 26 27 27 27 28 28 30 32 33 34 35 35 37 38 39 39 41 42 43 44 45 46 47 48 49 50 51
23 23 23 24 24 24 24 26 27 28 28 27 27 27 26 27 28 27 28 29 30 31 33 34 35 36 38 40 40 41 41 43 44 45 47 49 50 50 51 52 52 53 55
23 22 22 24 25 25 26 26 26 26 26 27 28 28 27 27 29 29 30 30 32 34 35 36 37 38 39 41 42 44 46 47 48 50 52 53 55 55 56 56 57 57 58
22 22 22 23 24 25 26 27 26 25 25 25 25 26 28 29 31 31 32 33 34 36 37 38 39 41 42 44 45 47 49 50 51 53 55 57 59 60 60 61 61 61 61
21 20 19 19 21 23 24 25 25 26 27 26 26 28 30 31 33 34 35 36 37 38 39 41 43 45 47 48 50 51 52 54 55 57 59 60 62 63 63 64 64 64 65
20 20 20 20 23 25 26 27 27 28 28 28 30 31 33 34 35 37 38 38 40 41 43 44 46 48 50 52 54 55 57 58 60 61 62 63 63 63 64 65 66 66 67
24 24 24 25 26 28 29 30 31 31 31 31 33 34 35 36 37 39 40 42 43 45 46 48 49 51 53 54 56 57 59 61 62 62 63 63 63 64 65 66 66 67 68
28 28 29 30 30 31 32 32 32 32 33 33 35 36 37 39 41 42 43 45 46 48 50 51 53 54 55 56 57 58 60 62 64 64 65 65 65 66 67 68 67 66 66
30 31 32 32 33 32 32 31 32 33 35 37 38 40 41 43 44 45 46 47 49 50 52 54 55 56 58 59 60 61 63 64 64 65 67 67 67 67 66 64 63 63 63
33 33 33 34 34 34 34 35 36 37 38 40 41 43 44 45 47 47 49 50 52 54 55 56 57 58 60 61 62 63 63 64 64 64 63 63 62 62 61 60 60 59 59
33 34 35 35 36 36 37 38 38 39 41 42 44 44 45 46 48 50 51 52 53 54 56 57 58 59 61 62 62 61 61 61 61 61 60 59 58 57 56 56 56 55 55
36 37 37 38 38 38 39 40 40 41 43 44 45 45 46 48 49 51 52 53 54 55 55 55 56 57 57 57 58 57 57 56 56 56 55 54 53 52 51 51 50 50 50
38 38 39 39 39 40 40 41 41 42 43 44 45 46 47 48 49 49 50 50 51 51 51 52 52 52 51 51 50 50 50 49 49 48 47 46 45 43 43 43 43 43 43
39 40 40 40 39 40 40 40 41 41 42 43 44 44 45 45 45 45 44 44 45 45 45 44 44 44 44 44 43 42 42 41 40 40 39 37 36 36 37 37 38 38 38
39 39 38 38 38 38 38 39 39 40 40 41 41 41 41 40 40 40 39 39 38 37 37 37 36 35 34 33 33 33 33 32 31 31 31 30 30 31 32 32 33 33 33
37 37 36 36 36 36 37 37 37 38 38 37 37 36 36 35 35 34 33 32 31 30 29 28 26 26 26 26 25 25 25 24 24 25 25 25 25 26 27 28 29 30 30
34 34 33 34 34 34 35 35 35 34 33 32 31 31 30 29 27 26 26 25 24 22 22 21 21 21 22 22 22 22 22 22 21 22 22 23 24 24 25 26 27 26 25
31 30 31 31 32 32 32 31 29 28 28 27 27 26 24 23 22 22 21 20 19 19 18 19 19 19 19 19 19 19 19 20 21 21 21 21 22 22 23 23 23 22 22
27 28 28 29 28 27 27 26 26 25 24 24 23 22 21 20 20 19 19 18 18 17 17 17 18 18 18 18 18 19 19 19 20 20 20 20 20 21 21 21 20 20 19
25 25 25 25 24 24 24 23 23 22 21 20 19 19 19 19 19 18 18 17 17 17 17 17 18 19 19 18 18 18 18 19 19 19 18 18 18 19 19 19 19 19 19
Wind_Direction
237 244 250 257 266 273 278 283 288 290 294 298 300 301 301 299 296 293 290 288 286 283 279 279 279 279 277 275 275 274 273 271 271 270 268 269 270 271 271 271 272 271 271
240 246 252 261 268 275 280 285 291 292 294 297 297 297 296 296 291 288 289 287 286 285 279 277 276 275 274 274 275 275 275 274 273 272 271 272 272 271 271 272 272 272 272
244 247 253 262 268 275 281 286 289 290 290 293 293 294 294 294 291 288 284 283 284 283 280 279 278 276 273 274 275 275 274 274 274 274 273 273 273 273 273 273 274 274 274
247 249 255 263 270 276 283 286 286 287 289 290 291 291 292 291 289 287 283 280 281 281 280 280 278 277 276 275 275 275 275 274 273 274 273 275 275 276 276 276 276 276 275
251 255 260 265 271 277 283 287 288 287 288 289 289 290 290 288 287 286 285 281 279 279 279 278 277 276 275 275 276 276 275 275 275 275 276 277 277 277 278 278 277 277 276
256 259 266 270 272 278 283 288 291 289 288 289 291 289 288 286 285 284 284 281 279 278 279 277 276 274 276 277 277 277 276 276 277 277 278 279 279 279 279 278 278 277 277
261 265 270 274 276 278 282 286 291 290 289 289 289 287 285 285 284 283 283 281 279 279 279 278 275 272 274 276 277 277 276 277 278 279 280 280 279 279 280 279 279 279 278
264 270 274 275 278 279 282 284 286 288 285 284 286 282 283 285 283 283 282 281 280 279 277 276 275 275 275 276 277 277 276 278 278 279 280 280 279 279 279 279 279 278 278
265 271 274 277 278 281 283 283 285 286 285 283 283 281 278 279 282 282 282 280 280 279 278 278 277 277 277 276 277 277 278 278 278 278 279 279 279 280 279 279 279 278 278
269 272 276 279 281 282 284 282 282 285 287 285 283 281 280 280 282 282 282 281 280 279 278 278 279 279 278 277 276 276 278 277 277 278 279 280 280 279 279 279 280 279 279
274 282 289 288 288 291 291 288 286 285 286 286 286 286 285 283 283 282 282 281 280 280 280 281 280 279 279 279 278 278 278 278 278 278 279 279 280 280 279 279 279 279 279
280 287 293 295 295 293 291 289 288 285 282 284 285 284 283 282 283 282 282 281 281 280 280 281 281 280 280 279 279 278 278 279 279 279 279 279 280 280 279 279 279 279 278
287 289 292 294 295 294 292 291 290 286 285 285 285 285 284 283 283 282 282 282 282 281 281 281 280 280 279 278 278 278 278 278 278 279 280 280 280 279 279 280 280 279 278
287 290 292 291 292 292 292 290 288 287 286 286 287 287 286 285 284 283 282 282 282 282 282 282 280 279 279 278 278 277 277 278 279 279 279 279 279 278 278 279 279 279 280
287 289 289 290 291 291 290 290 290 288 287 287 289 289 288 286 285 284 284 284 283 282 281 281 280 279 279 278 278 279 278 278 278 278 278 278 278 279 280 281 281 281 281
287 288 289 290 291 292 291 292 292 290 288 290 291 290 289 288 286 286 286 285 283 283 282 281 280 278 279 280 280 279 279 279 279 279 279 280 281 282 282 282 283 283 283
287 288 290 291 290 291 292 293 293 293 293 293 293 292 291 290 288 288 287 286 285 284 282 281 281 281 280 280 281 281 280 280 280 281 281 282 284 285 286 287 288 288 287
288 289 290 292 292 293 294 294 294 294 294 294 293 293 292 291 289 288 287 287 286 285 284 283 282 282 282 282 282 283 283 283 284 285 285 286 287 289 290 290 290 290 289
288 289 290 292 292 294 294 294 294 294 294 294 294 294 293 292 291 290 289 289 288 287 285 285 285 284 284 285 286 287 288 288 289 289 290 291 291 292 292 293 292 291 291
288 289 290 292 292 294 294 294 295 296 296 296 295 295 294 294 293 293 292 292 292 291 291 290 290 289 290 290 290 291 292 293 294 294 294 294 293 294 295 295 295 295 294
288 289 291 292 293 294 294 295 296 297 298 297 297 296 296 295 295 295 295 296 296 297 297 296 297 297 298 298 298 298 298 298 299 299 299 299 298 299 300 300 300 300 300
288 289 291 292 293 294 295 296 297 298 298 298 298 299 299 299 300 301 301 301 301 302 303 305 306 307 308 308 308 307 306 306 307 307 306 306 307 307 308 308 308 307 306
288 290 291 292 294 295 295 296 298 298 299 300 302 304 305 306 308 309 309 309 310 311 312 313 314 315 316 317 316 316 315 314 314 313 313 314 314 314 314 314 314 314 314
289 290 291 293 295 295 296 298 299 300 302 303 306 308 310 313 316 316 316 317 319 320 320 321 322 324 325 325 325 324 323 323 324 324 322 322 323 323 322 324 325 325 325
289 291 292 294 295 296 298 300 301 303 305 306 309 311 313 316 319 320 320 322 323 324 325 327 328 329 329 330 330 331 331 331 332 331 332 332 332 333 335 337 338 338 339
288 290 292 294 295 298 300 301 303 304 307 309 312 313 315 317 319 321 323 325 326 328 330 331 332 333 333 334 335 336 337 337 338 338 340 341 342 344 345 346 348 349 349
Height
5888 5888 5889 5890 5890 5890 5890 5889 5889 5887 5886 5885 5884 5883 5882 5882 5881 5880 5879 5878 5877 5876 5874 5873 5872 5871 5870 5869 5868 5867 5866 5866 5865 5864 5863 5862 5862 5861 5860 5859 5859 5858 5857
5885 5886 5886 5886 5886 5886 5886 5886 5885 5884 5883 5882 5881 5879 5878 5877 5876 5875 5874 5873 5872 5871 5870 5868 5868 5867 5866 5865 5864 5863 5862 5861 5860 5859 5858 5857 5856 5855 5854 5853 5852 5852 5851
5882 5882 5883 5883 5883 5883 5883 5882 5881 5880 5878 5877 5876 5874 5873 5872 5871 5870 5868 5867 5866 5865 5864 5863 5862 5862 5861 5860 5859 5857 5856 5855 5854 5853 5852 5851 5850 5848 5847 5847 5846 5844 5843
5877 5878 5879 5879 5879 5878 5878 5877 5876 5875 5873 5872 5870 5869 5867 5866 5865 5864 5862 5861 5860 5859 5858 5857 5857 5856 5855 5853 5852 5851 5850 5848 5847 5846 5845 5843 5842 5841 5839 5838 5837 5836 5835
5873 5873 5874 5874 5874 5873 5873 5872 5871 5869 5867 5866 5864 5862 5861 5859 5858 5857 5856 5854 5853 5853 5852 5851 5850 5849 5847 5846 5845 5843 5842 5841 5839 5838 5837 5835 5834 5832 5830 5829 5827 5826 5825
5868 5868 5868 5868 5868 5868 5867 5866 5865 5863 5861 5859 5858 5856 5855 5854 5852 5851 5850 5848 5847 5846 5845 5844 5842 5841 5840 5839 5837 5836 5834 5832 5831 5829 5827 5826 5824 5822 5820 5818 5817 5815 5813
5862 5863 5863 5863 5862 5862 5861 5860 5858 5857 5855 5853 5852 5850 5849 5847 5846 5845 5843 5842 5841 5839 5838 5837 5835 5834 5832 5831 5829 5827 5825 5823 5821 5819 5817 5815 5813 5811 5808 5806 5804 5803 5801
5857 5857 5857 5857 5856 5856 5855 5853 5852 5850 5848 5847 5845 5844 5842 5841 5839 5838 5836 5835 5833 5832 5831 5829 5827 5825 5824 5822 5820 5818 5815 5813 5811 5808 5806 5803 5800 5798 5795 5793 5791 5789 5787
5850 5850 5850 5850 5850 5849 5848 5847 5845 5843 5841 5840 5839 5837 5836 5835 5833 5831 5829 5827 5826 5824 5822 5820 5819 5817 5815 5813 5810 5808 5805 5802 5799 5796 5793 5790 5787 5784 5782 5779 5777 5774 5772
5843 5843 5843 5843 5842 5842 5841 5839 5837 5836 5835 5833 5832 5830 5829 5827 5826 5824 5822 5820 5818 5816 5813 5811 5809 5807 5805 5802 5800 5797 5794 5790 5787 5784 5780 5777 5774 5770 5767 5764 5761 5759 5756
5836 5836 5836 5836 5835 5835 5833 5832 5830 5829 5828 5826 5825 5823 5821 5819 5817 5816 5813 5811 5809 5806 5804 5802 5799 5796 5793 5790 5787 5784 5781 5777 5773 5769 5766 5762 5759 5755 5751 5748 5745 5742 5739
5830 5830 5830 5829 5829 5828 5826 5825 5823 5822 5820 5818 5817 5815 5813 5811 5809 5806 5804 5801 5799 5796 5794 5791 5787 5784 5781 5778 5775 5771 5767 5763 5758 5754 5750 5746 5743 5739 5735 5731 5727 5724 5721
5824 5824 5823 5823 5822 5820 5819 5817 5816 5814 5812 5810 5808 5805 5803 5801 5798 5796 5794 5791 5788 5785 5782 5778 5775 5771 5768 5764 5760 5756 5752 5747 5743 5738 5734 5730 5726 5722 5718 5713 5709 5706 5702
5817 5817 5816 5815 5814 5812 5810 5808 5807 5805 5803 5801 5798 5795 5793 5790 5788 5785 5782 5779 5775 5772 5768 5765 5761 5757 5753 5750 5746 5741 5737 5732 5727 5723 5718 5713 5709 5705 5700 5696 5691 5687 5684
5809 5809 5808 5807 5805 5803 5801 5799 5797 5796 5793 5791 5788 5785 5782 5779 5776 5773 5770 5767 5763 5759 5755 5751 5747 5743 5738 5734 5730 5725 5721 5716 5711 5706 5701 5696 5691 5687 5682 5677 5672 5669 5665
5801 5800 5799 5797 5796 5794 5792 5790 5787 5785 5783 5780 5777 5774 5770 5767 5763 5760 5756 5753 5749 5745 5740 5736 5731 5727 5722 5717 5713 5708 5704 5699 5694 5689 5683 5678 5673 5669 5664 5660 5655 5651 5647
5793 5791 5789 5788 5786 5784 5781 5779 5777 5774 5771 5768 5765 5761 5758 5754 5750 5746 5742 5738 5734 5729 5724 5719 5714 5709 5705 5700 5695 5690 5686 5681 5676 5671 5667 5662 5657 5652 5648 5643 5639 5635 5631
5784 5782 5780 5778 5776 5773 5771 5769 5766 5763 5760 5756 5753 5749 5745 5741 5737 5732 5728 5723 5718 5713 5708 5703 5697 5692 5688 5683 5678 5674 5669 5665 5660 5656 5651 5647 5643 5638 5634 5630 5625 5621 5617
5775 5772 5770 5768 5765 5763 5761 5758 5755 5752 5748 5745 5741 5737 5732 5728 5723 5718 5713 5708 5702 5697 5692 5687 5681 5676 5672 5668 5664 5659 5655 5651 5646 5642 5638 5634 5631 5626 5622 5618 5614 5609 5605
5765 5763 5760 5758 5756 5753 5750 5747 5744 5741 5737 5733 5729 5724 5719 5714 5709 5704 5699 5694 5688 5683 5678 5673 5668 5663 5659 5655 5651 5647 5643 5639 5636 5632 5628 5624 5621 5617 5612 5608 5604 5599 5594
5755 5753 5751 5748 5746 5743 5740 5737 5734 5730 5726 5722 5717 5712 5707 5702 5696 5691 5687 5681 5676 5671 5667 5662 5657 5653 5649 5645 5641 5637 5634 5630 5627 5623 5619 5615 5612 5608 5604 5599 5595 5590 5585
5746 5744 5742 5739 5736 5734 5730 5727 5723 5720 5715 5711 5706 5701 5696 5691 5686 5681 5676 5671 5667 5663 5658 5654 5650 5646 5642 5638 5634 5631 5627 5624 5621 5617 5613 5609 5605 5601 5597 5592 5587 5582 5577
5737 5734 5732 5730 5727 5724 5721 5717 5713 5710 5706 5701 5697 5692 5687 5682 5678 5673 5669 5665 5661 5657 5653 5650 5646 5642 5638 5634 5630 5626 5623 5619 5616 5612 5608 5604 5600 5596 5591 5586 5581 5575 5570
5728 5726 5723 5721 5718 5715 5712 5708 5705 5701 5697 5693 5689 5685 5681 5676 5672 5668 5664 5661 5657 5653 5650 5646 5642 5639 5635 5631 5627 5623 5620 5616 5612 5608 5604 5600 5595 5591 5586 5581 5575 5570 5565
5720 5718 5715 5713 5710 5707 5704 5701 5697 5694 5690 5687 5683 5679 5676 5672 5668 5664 5661 5657 5654 5651 5647 5643 5640 5636 5632 5628 5624 5621 5617 5613 5609 5605 5600 5596 5592 5587 5583 5577 5572 5567 5562
5713 5711 5708 5706 5703 5700 5697 5694 5691 5687 5684 5681 5678 5675 5671 5668 5665 5662 5658 5655 5652 5648 5645 5641 5638 5634 5630 5626 5622 5618 5614 5610 5606 5602 5598 5594 5589 5585 5580 5575 5570 5565 5560